Location: *
(46.3500°N, 10.9000°E)
Time: 02:56:39
(UTC+00:00)

Altair - All Passes

Search period start: 21 April 2021 00:00
Search period end: 01 May 2021 00:00
Orbit: 1501 x 1683 km, 47.2° (Epoch: 20 April)

Date Brightness Start Highest point End Pass type
(mag) Time Alt. Az. Time Alt. Az. Time Alt. Az.
21 Apr - 02:35:29 10° S 02:42:09 20° SE 02:48:41 10° E visible
21 Apr - 04:35:50 10° SW 04:45:26 57° SSE 04:54:42 10° ENE daylight
21 Apr - 06:40:06 10° W 06:49:58 89° N 06:59:26 10° E daylight
21 Apr - 08:45:17 10° WNW 08:54:57 87° SSW 09:04:16 10° ESE daylight
21 Apr - 10:50:17 10° WNW 10:59:09 48° SW 11:07:47 10° SSE daylight
21 Apr - 12:57:41 10° W 13:01:55 14° WSW 13:06:07 10° SSW daylight
22 Apr - 02:10:55 10° SSE 02:17:07 19° SE 02:23:11 10° E visible
22 Apr - 04:10:44 10° SW 04:20:17 54° SE 04:29:31 10° ENE daylight
22 Apr - 06:14:52 10° WSW 06:24:45 90° NW 06:34:15 10° E daylight
22 Apr - 08:20:03 10° W 08:29:46 89° SSW 08:39:06 10° ESE daylight
22 Apr - 10:25:04 10° WNW 10:34:03 51° SW 10:42:48 10° SE daylight
22 Apr - 12:31:56 10° W 12:36:55 16° SW 12:41:53 10° SSW daylight
23 Apr - 01:46:27 10° SSE 01:52:05 17° SE 01:57:37 10° E visible
23 Apr - 03:45:40 10° SW 03:55:09 51° SE 04:04:20 10° ENE visible
23 Apr - 05:49:37 10° WSW 05:59:33 88° S 06:09:05 10° E daylight
23 Apr - 07:54:49 10° W 08:04:35 89° NNE 08:13:56 10° ESE daylight
23 Apr - 09:59:49 10° WNW 10:08:57 54° SW 10:17:48 10° SE daylight
23 Apr - 12:06:19 10° W 12:11:55 18° SW 12:17:29 10° SSW daylight
24 Apr - 01:22:06 10° SSE 01:27:03 15° SE 01:31:56 10° E visible
24 Apr - 03:20:38 10° SSW 03:30:02 48° SE 03:39:08 10° ENE visible
24 Apr - 05:24:23 10° WSW 05:34:20 87° SSE 05:43:54 10° ENE daylight
24 Apr - 07:29:34 10° W 07:39:23 88° N 07:48:47 10° E daylight
24 Apr - 09:34:36 10° WNW 09:43:51 57° SSW 09:52:47 10° SE daylight
24 Apr - 11:40:47 10° W 11:46:56 20° SW 11:53:00 10° S daylight
25 Apr - 00:57:57 10° SSE 01:02:02 13° ESE 01:06:04 10° E visible
25 Apr - 02:55:37 10° SSW 03:04:54 45° SE 03:13:55 10° ENE visible
25 Apr - 04:59:10 10° WSW 05:09:08 85° SSE 05:18:45 10° ENE daylight
25 Apr - 07:04:19 10° W 07:14:10 87° N 07:23:37 10° E daylight
25 Apr - 09:09:22 10° WNW 09:18:43 61° SSW 09:27:45 10° SE daylight
25 Apr - 11:15:18 10° W 11:21:55 22° SW 11:28:26 10° S daylight
26 Apr - 00:34:10 10° SE 00:37:01 11° ESE 00:39:52 10° ESE visible
26 Apr - 02:30:37 10° SSW 02:39:47 42° SE 02:48:42 10° ENE visible
26 Apr - 04:33:56 10° WSW 04:43:56 82° SSE 04:53:34 10° ENE daylight
26 Apr - 06:39:04 10° W 06:48:57 86° N 06:58:26 10° E daylight
26 Apr - 08:44:08 10° WNW 08:53:35 64° SSW 09:02:42 10° SE daylight
26 Apr - 10:49:52 10° W 10:56:54 24° SW 11:03:48 10° S daylight
27 Apr - 02:05:38 10° SSW 02:14:40 39° SE 02:23:28 10° ENE visible
27 Apr - 04:08:44 10° WSW 04:18:44 80° SSE 04:28:24 10° ENE daylight
27 Apr - 06:13:49 10° W 06:23:45 85° N 06:33:15 10° E daylight
27 Apr - 08:18:54 10° WNW 08:28:27 67° SSW 08:37:38 10° SE daylight
27 Apr - 10:24:29 10° W 10:31:52 27° SW 10:39:06 10° S daylight
28 Apr - 01:40:42 10° SSW 01:49:34 37° SE 01:58:13 10° ENE visible
28 Apr - 03:43:32 10° WSW 03:53:33 77° SSE 04:03:13 10° ENE daylight
28 Apr - 05:48:34 10° W 05:58:31 85° N 06:08:04 10° E daylight
28 Apr - 07:53:41 10° WNW 08:03:18 70° SSW 08:12:33 10° SE daylight
28 Apr - 09:59:08 10° WNW 10:06:50 29° SW 10:14:21 10° S daylight
29 Apr - 01:15:47 10° SSW 01:24:28 34° SE 01:32:58 10° ENE visible
29 Apr - 03:18:20 10° WSW 03:28:21 75° SSE 03:38:03 10° ENE visible
29 Apr - 05:23:18 10° W 05:33:18 85° N 05:42:53 10° E daylight
29 Apr - 07:28:27 10° WNW 07:38:09 73° SSW 07:47:28 10° ESE daylight
29 Apr - 09:33:48 10° WNW 09:41:47 31° SW 09:49:34 10° SSE daylight
30 Apr - 00:50:55 10° SSW 00:59:23 32° SE 01:07:40 10° ENE visible
30 Apr - 02:53:09 10° SW 03:03:10 72° SSE 03:12:52 10° ENE visible
30 Apr - 04:58:02 10° W 05:08:05 85° N 05:17:42 10° E daylight
30 Apr - 07:03:13 10° WNW 07:12:59 76° SSW 07:22:21 10° ESE daylight
30 Apr - 09:08:29 10° WNW 09:16:44 34° SW 09:24:45 10° SSE daylight
